Weather Roundup
Issued by NWS Chicago, IL

Home | Current Version | Previous Version | Graphics & Text | Print | Product List | Glossary On
Versions: 1 2 3 4 5 6 7 8 9 10 11 12 13 14 15 16 17 18 19 20 21 22 23 24 25 26 27 28 29 30 31 32 33 34 35 36 37 38 39 40 41 42 43 44 45 46 47 48 49 50
000
NZUS59 KLOT 211308
HRRLOT

CHICAGO AREA WEATHER ROUNDUP
NATIONAL WEATHER SERVICE CHICAGO/ROMEOVILLE IL
800 AM CDT SAT APR 21 2018

NOTE: "FAIR" INDICATES FEW OR NO CLOUDS BELOW 12,000 FEET WITH NO
SIGNIFICANT WEATHER AND/OR OBSTRUCTIONS TO VISIBILITY.

* THESE STATIONS ARE NOT UNDER NWS QUALITY CONTROL. THEY ALSO MAY NOT
  REPORT WEATHER SUCH AS PRECIPITATION OR FOG.

ILZ005-006-012>014-019>023-211400-
NORTHEAST ILLINOIS

CITY           SKY/WX    TMP DP  RH WIND       PRES   REMARKS
OHARE          CLOUDY    45  20  36 E3        30.44R
MIDWAY         CLOUDY    46  20  35 E5        30.45R
AURORA         PTSUNNY   42  33  70 CALM      30.45R
LANSING*       CLOUDY    42  26  51 CALM      30.44S
JOLIET*        CLOUDY    47  25  42 CALM      30.45R
WAUKEGAN       PTSUNNY   38  29  70 NE3       30.45R
DUPAGE AIRPORT PTSUNNY   44  23  43 CALM      30.45R
WHEELING       CLOUDY    43  27  53 CALM      30.47R
KANKAKEE*      PTSUNNY   43  26  51 E3        30.45R
MORRIS*        CLOUDY    41  31  68 N3        30.44S
LEWIS AIRPORT* CLOUDY    45  27  49 CALM      30.45R
NORTHERLY ISL    N/A     40  32  73 NW1         N/A
$$

WIZ051-052-058>065-066-070>072-211400-
SOUTHEAST WISCONSIN

CITY           SKY/WX    TMP DP  RH WIND       PRES   REMARKS
MILWAUKEE      CLOUDY    40  26  57 CALM      30.47R
KENOSHA*         N/A     38  29  70 NE3       30.46R
RACINE*          N/A     38  31  76 NE3       30.48R
BURLINGTON       N/A     35  27  74 CALM      30.45R
WAUKESHA       PTSUNNY   34  25  69 NE3       30.47R
WEST BEND        N/A     34  32  93 CALM      30.46R
$$

INZ001>003-010>013-019-020-211400-
NORTHWEST INDIANA

CITY           SKY/WX    TMP DP  RH WIND       PRES   REMARKS
GARY*          CLOUDY    43  34  70 CALM      30.45S
MICHIGAN CITY* NOT AVBL
RENSSELAER*    NOT AVBL
VALPARAISO     PTSUNNY   43  25  49 E5        30.45S
$$

LMZ740>746-211400-
SOUTHERN LAKE MICHIGAN

STATION/POSITION TIME  SKY/WX   TEMP WIND        PRES    VSBY
                                AIR  DIR/SP/G
                 (UTC)          (F)  (DEG/KT/KT) (MB)    (MI)
HARRISON CRIB    1240            40   60/  5/  5   N/A
BURNHAM HARBOR   1300            41  360/  3/  5   N/A
CALUMET HARBOR   1242            41   30/  3/  4 1030.2F
BURNS HARBOR     1240            44   90/  6/  7 1031.2S
MICHIGAN CITY    1240            39  220/  1/  2   N/A
$$

ABBREVIATIONS USED IN REMARKS
   TC - TEMPERATURE IN CELSIUS
  WCI - WIND CHILL INDEX
   HX - HEAT INDEX
  VSB - VISIBILITY
$$



USA.gov is the U.S. government's official web portal to all federal, state and local government web resources and services.